Regional Weather Roundup
Issued by NWS Sterling, VA

Home | Current Version | Previous Version | Graphics & Text | Print | Product List | Glossary On
Versions: 1 2 3 4 5 6 7 8 9 10 11 12 13 14 15 16 17 18 19 20 21 22 23 24 25 26 27 28 29 30 31 32 33 34 35 36 37 38 39 40 41 42 43 44 45 46 47 48 49 50
891
ASUS41 KLWX 232311
RWRLWX

REGIONAL WEATHER ROUNDUP
NATIONAL WEATHER SERVICE BALTIMORE MD/WASHINGTON DC
600 PM EST FRI FEB 23 2018

Note: "FAIR" indicates few or no clouds below 12,000 feet
with no significant weather and/or obstructions to visibility.
 TC=TEMPERATURE CELSIUS

 * =Non NWS site. Station does not report precipitation (e.g. rain,
    snow, etc.), thunder, or fog.

DCZ001-MDZ009-015-VAZ040>042-051-053>054-240000-
WASHINGTON METRO

CITY           SKY/WX    TMP DP  RH WIND       PRES   REMARKS
WASHINGTON NAT CLOUDY    47  44  90 S7        30.35F
DULLES         CLOUDY    45  44  97 SE3       30.33F
ANDREWS AFB    CLOUDY    45  43  93 CALM      30.33F
FT BELVOIR     CLOUDY    46  43  87 SE3       30.34F
QUANTICO       CLOUDY    48  46  93 S5        30.35F
COLLEGE PARK*  CLOUDY    45  42  89 CALM      30.35S
LEESBURG*      CLOUDY    43  43 100 S6        30.33F
MANASSAS*      CLOUDY    47  44  90 SE6       30.33F
GAITHERSBURG*  CLOUDY    43  42  97 SE6       30.33F FOG

$$

MDZ006>007-011-014-240000-
BALTIMORE METRO

CITY           SKY/WX    TMP DP  RH WIND       PRES   REMARKS
BWI AIRPORT    CLOUDY    43  43 100 CALM      30.34F FOG
MD SCIENCE CTR   N/A     45  43  93 MISG      30.35F
MARTIN STATE   CLOUDY    45  45 100 CALM      30.36F FOG
ANNAPOLIS      CLOUDY    45  44  97 SE3       30.35F FOG
FORT MEADE*    CLOUDY    43  41  93 CALM      30.37F

$$

MDZ012-015-019>023-240000-
MARYLAND EASTERN SHORE

CITY           SKY/WX    TMP DP  RH WIND       PRES   REMARKS
OCEAN CITY     FOG       44  44 100 SE3       30.34F VSB 1/2
SALISBURY      CLOUDY    48  48 100 CALM      30.34F
BAY BRIDGE AP* DRIZZLE   43  41  93 CALM      30.36S FOG
CAMBRIDGE*     CLOUDY    48  46  93 CALM      30.35F
EASTON*        CLOUDY    46  45  93 CALM      30.38F FOG

$$

MDZ017>025-240000-
SOUTHERN MARYLAND

CITY           SKY/WX    TMP DP  RH WIND       PRES   REMARKS
PATUXENT RIVER CLOUDY    45  44  97 CALM      30.34F
ST INIGOES     CLOUDY    45  44  97 CALM      30.34S FOG
LEONARDTOWN*   CLOUDY    45  43  93 CALM      30.36F

$$

MDZ003>005-240000-
NORTH CENTRAL MARYLAND

CITY           SKY/WX    TMP DP  RH WIND       PRES   REMARKS
FREDERICK*     CLOUDY    45  45 100 VRB5      30.35F FOG
HAGERSTOWN APT CLOUDY    44  42  93 SE5       30.30S FOG
WESTMINSTER*   CLOUDY    43  43 100 S5        30.30F FOG

$$

MDZ501>502-240000-
WESTERN MARYLAND

CITY           SKY/WX    TMP DP  RH WIND       PRES   REMARKS
OAKLAND*       MOCLDY    59  54  82 W7        30.24S
CUMBERLAND*    CLOUDY    45  43  93 CALM      30.32F

$$

VAZ025>031-240000-
SHENANDOAH VALLEY

CITY           SKY/WX    TMP DP  RH WIND       PRES   REMARKS
WINCHESTER*    MOCLDY    45  41  87 SE3       30.30S
FRONT ROYAL*   FAIR      46  43  87 NE3       30.28S
LURAY*         FAIR      55  50  82 NE3       30.26S
NEW MARKET*    FAIR      53  49  87 N3        30.26R
STAUNTON*      FAIR      56  49  78 S3        30.28F
WAYNESBORO*    FAIR      54  48  80 S5        30.28S

$$

WVZ021-048>050-054>055-240000-
EASTERN WEST VIRGINIA PANHANDLE

CITY           SKY/WX    TMP DP  RH WIND       PRES   REMARKS
MARTINSBURG    CLOUDY    45  42  89 CALM      30.28F
PETERSBURG*    FAIR      46  44  91 CALM      30.26F

$$

VAZ036>039-050-240000-
CENTRAL FOOTHILLS

CITY           SKY/WX    TMP DP  RH WIND       PRES   REMARKS
CHARLOTTESVILL CLOUDY    51  45  79 SW7       30.31F
CULPEPER*      CLOUDY    49  45  84 S6        30.33F
ORANGE*        CLOUDY    46  45  93 CALM      30.32F
GORDONSVILLE*  CLOUDY    49  47  93 S5        30.32F
WARRENTON*     CLOUDY    49  43  79 S5        30.32F

$$

VAZ055>057-240000-
NORTH AND CENTRAL PIEDMONT

CITY           SKY/WX    TMP DP  RH WIND       PRES   REMARKS
FREDERICKSBRG* CLOUDY    49  46  89 S5        30.33F
STAFFORD*      CLOUDY    49  49  98 S3        30.38F

$$

NCZ024-NYZ072-PAZ021-071-VAZ022-071-240000-
OTHER REGIONAL OBSERVATIONS

CITY           SKY/WX    TMP DP  RH WIND       PRES   REMARKS
NEW YORK CITY  LGT RAIN  40  39  97 VRB3      30.37F FOG
PHILADELPHIA   CLOUDY    43  42  97 E3        30.37S FOG
PITTSBURGH     CLOUDY    63  57  81 SW8       30.14F
ROANOKE        FAIR      52  47  83 E6        30.34F
RICHMOND       CLOUDY    51  46  83 S6        30.35F
RALEIGH        FAIR      63  55  75 NE3       30.34F

$$

ANZ530>537-240000-
MARINE OBSERVATIONS

STATION/POSITION TIME  TEMP    WIND        PRES
                       AIR SEA DIR/SP/G
                 (UTC) (F)     (DEG/KT/KT) (MB)
THOMAS PT LIGHT  2300   42 42     CALM       N/A
BALT KEY BRIDGE  2242   43      90/  1/  2 1027.8F
COVE POINT       2242   43     180/  5/  6 1028.4F
LEWISETTA        2242   47 49  200/  3/  4 1027.6F
SOLOMONS ISLAND  2242   44 43   80/  4/  4 1027.4F
PINEY POINT      2242          160/  5/  5   N/A

$$





USA.gov is the U.S. government's official web portal to all federal, state and local government web resources and services.